IRS-P6 (RESOURCESAT-1) (28051 NORAD) Tracking and Keplerian Element Data

This shows tracking and keplerian element data for the satellite.

Feedback or suggestion? Click here.




ElementValue
Catalog28051
NameIRS-P6 (RESOURCESAT-1)
Epoch Orbit10910
Epoch Day35.3198852
Epoch Year2025
RAAN89.3895
Inclination98.262
Eccentricity0.0065313
Argument of Perigee35.7777
Mean Anonmoly30.8258
Mean Motion14.35856087
Decay Rate5.73E-06
L11 28051U 03046A 25035.31988520 .00000573 00000+0 20687-3 0 9990
L22 28051 98.2620 89.3895 0065313 35.7777 30.8258 14.35856087109105



Live tracking and technical data element details for IRS-P6 (RESOURCESAT-1) (NORAD 28051). IRS-P6 (RESOURCESAT-1) can be tracked NOW for your location showing map with azimuth and elevation plus other details from your city location.







IsCatalogInMostPopularTable: catalog: 28051, numindb: 315
Update: records affected: 1



GetName: 28051 IRS-P6 (RESOURCESAT-1)

Hit Count: updated at: Sat, 17 May 2025 09:12:29 GMT